Weather History for KGPI - August, 2013

Change the Weather History Date:

Saturday, August 24, 2013

  Actual Average Record
Temperature  
Mean Temperature 66 °F 62 °F  
Max Temperature 86 °F 79 °F 103 °F (1969)
Min Temperature 45 °F 45 °F 34 °F (1910)
Degree Days  
Heating Degree Days 0 4  
Month to date heating degree days 17 62  
Since 1 June heating degree days 222 355  
Since 1 July heating degree days 36 139  
Cooling Degree Days 1 1  
Month to date cooling degree days 85 55  
Year to date cooling degree days 226 138  
Since 1 June cooling degree days 226 135  
Growing Degree Days 15 (Base 50)    
Moisture  
Dew Point 47 °F    
Average Humidity 60    
Maximum Humidity 100    
Minimum Humidity 19    
Precipitation  
Precipitation T in 0.04 in 0.66 in (1953)
Month to date precipitation 0.94 0.73  
Year to date precipitation 10.26 11.35  
Snow  
Snow 0.00 in - - ()
Month to date snowfall 0.0  
Year to date snowfall 10.1  
Since 1 July snowfall 0.0  
Snow Depth 0.00 in    
Sea Level Pressure  
Sea Level Pressure 29.85 in    
Wind  
Wind Speed 3 mph (ESE)    
Max Wind Speed 16 mph    
Max Gust Speed 20 mph    
Visibility 8 miles    
Events Fog    
T = Trace of Precipitation, MM = Missing Value Source: NWS Daily Summary

Daily Weather History Graph

Daily Weather History Graph

Search for Another Location

Airport or City:

Trip Planner

Search our weather history database for the weather conditions in past years. The results will help you decide how hot, cold, wet, or windy it might be!

Date:

Astronomy

Aug. 24, 2013 Rise Set
Actual Time 6:44 AM MDT 8:33 PM MDT
Civil Twilight 6:10 AM MDT 9:06 PM MDT
Nautical Twilight 5:29 AM MDT 9:47 PM MDT
Astronomical Twilight 4:44 AM MDT 10:32 PM MDT
Moon 10:04 PM MDT (8/24) 11:12 AM MDT (8/24)
Length of Visible Light 14h 55m
Length of Day
13h 49m
Waning Gibbous, 84% of the Moon is Illuminated
Aug 24
Waning Gibbous
Aug 28
Last Quarter
Sep 5
New
Sep 12
First Quarter
Sep 19
Full

Hourly Weather History & Observations

Time (MDT) Temp. Dew Point Humidity Pressure Visibility Wind Dir Wind Speed Gust Speed Precip Events Conditions
12:55 AM 55.0 °F 50.0 °F 83% 29.83 in 10.0 mi North 3.5 mph - N/A   Clear
1:55 AM 53.1 °F 48.9 °F 86% 29.84 in 10.0 mi Calm Calm - N/A   Clear
2:55 AM 52.0 °F 50.0 °F 93% 29.85 in 10.0 mi Calm Calm - N/A   Clear
3:55 AM 50.0 °F 46.9 °F 89% 29.86 in 10.0 mi NNE 3.5 mph - N/A   Clear
4:55 AM 48.0 °F 46.9 °F 96% 29.87 in 10.0 mi Calm Calm - N/A   Clear
5:55 AM 46.9 °F 46.0 °F 97% 29.88 in 7.0 mi Calm Calm - N/A   Clear
6:33 AM 46.4 °F 44.6 °F 93% 29.91 in 1.8 mi Calm Calm - N/A   Clear
6:39 AM 46.4 °F 44.6 °F 93% 29.91 in 3.0 mi Calm Calm - N/A   Clear
6:50 AM 46.4 °F 44.6 °F 93% 29.91 in 1.5 mi Calm Calm - N/A   Clear
6:52 AM 46.4 °F 44.6 °F 93% 29.91 in 0.8 mi Calm Calm - N/A   Clear
6:55 AM 46.0 °F 45.0 °F 96% 29.90 in 0.2 mi Calm Calm - N/A Fog Fog
7:08 AM 46.4 °F 44.6 °F 93% 29.91 in 1.0 mi Calm Calm - N/A   Clear
7:10 AM 46.4 °F 44.6 °F 93% 29.91 in 3.0 mi Calm Calm - N/A   Clear
7:43 AM 48.2 °F 46.4 °F 93% 29.92 in 1.8 mi Calm Calm - N/A   Clear
7:55 AM 51.1 °F 48.0 °F 89% 29.90 in 10.0 mi Calm Calm - N/A   Clear
8:55 AM 61.0 °F 53.1 °F 75% 29.91 in 10.0 mi Calm Calm - N/A   Clear
9:55 AM 64.9 °F 53.1 °F 65% 29.90 in 10.0 mi Calm Calm - N/A   Clear
10:55 AM 70.0 °F 52.0 °F 53% 29.90 in 10.0 mi Calm Calm - N/A   Clear
11:55 AM 75.0 °F 51.1 °F 43% 29.88 in 10.0 mi South 9.2 mph - N/A   Clear
12:55 PM 77.0 °F 48.0 °F 36% 29.87 in 10.0 mi South 8.1 mph - N/A   Clear
1:55 PM 80.1 °F 48.0 °F 32% 29.84 in 10.0 mi South 9.2 mph - N/A   Clear
2:55 PM 82.0 °F 48.0 °F 30% 29.83 in 10.0 mi East 4.6 mph - N/A   Clear
3:55 PM 84.0 °F 45.0 °F 25% 29.80 in 10.0 mi Calm Calm - N/A   Clear
4:55 PM 84.0 °F 45.0 °F 25% 29.78 in 10.0 mi SSE 9.2 mph - N/A   Clear
5:55 PM 84.9 °F 42.1 °F 22% 29.76 in 10.0 mi NE 3.5 mph - N/A   Clear
6:55 PM 84.9 °F 37.9 °F 19% 29.74 in 10.0 mi Calm Calm - N/A   Clear
7:55 PM 82.9 °F 39.0 °F 21% 29.73 in 10.0 mi Calm Calm - N/A   Clear
8:55 PM 69.1 °F 46.9 °F 45% 29.75 in 10.0 mi Calm Calm - N/A   Clear
9:55 PM 61.0 °F 45.0 °F 56% 29.78 in 10.0 mi Calm Calm - N/A   Clear
10:55 PM 61.0 °F 46.9 °F 60% 29.75 in 10.0 mi Calm Calm - N/A   Clear
11:55 PM 60.1 °F 46.0 °F 60% 29.75 in 10.0 mi WNW 3.5 mph - N/A   Clear